This demonstration page uses our WeatherBlox Daily Observations layout. Learn more.

Left ArrowRight Arrow

Hourly Observations for August 4, 2022

Temp ( °F °C ) Dew Point ( °F °C ) Humidity (%) Winds ( mph kmh ) Pressure ( in mb ) Visibility ( mi km ) Precip ( " mm )
12:52 am 00:52 Clear 72 22.2 65 18.3 79 79 N 8 13 29.94 1014 10 16 0.00 0.00
1:52 am 01:52 Clear 71 21.7 62 16.7 73 73 N 7 11 29.94 1014 10 16 0.00 0.00
2:52 am 02:52 Clear 69 20.6 62 16.7 78 78 N 6 9 29.96 1014 10 16 0.00 0.00
3:52 am 03:52 Clear 68 20 61 16.1 78 78 N 8 13 29.96 1015 10 16 0.00 0.00
4:52 am 04:52 Clear 66 18.9 61 16.1 84 84 N 5 7 29.98 1015 10 16 0.00 0.00
5:52 am 05:52 Clear 63 17.2 60 15.6 90 90 NW 3 6 29.99 1016 10 16 0.00 0.00
6:52 am 06:52 Mostly Sunny 64 17.8 61 16.1 90 90 Calm 30.01 1016 10 16 0.00 0.00
7:52 am 07:52 Mostly Sunny 67 19.4 61 16.1 81 81 Calm 30.02 1017 10 16 0.00 0.00
8:52 am 08:52 Mostly Sunny 70 21.1 60 15.6 71 71 ESE 8 13 30.02 1017 10 16 0.00 0.00
9:52 am 09:52 Mostly Sunny 73 22.8 61 16.1 66 66 ESE 6 9 30.02 1017 10 16 0.00 0.00
10:52 am 10:52 Mostly Sunny 76 24.4 61 16.1 60 60 Calm 30.03 1017 10 16 0.00 0.00
11:52 am 11:52 Mostly Sunny 81 27.2 63 17.2 54 54 VRB 5 7 30.02 1017 10 16 0.00 0.00
12:52 pm 12:52 Mostly Sunny 85 29.4 64 17.8 50 50 Calm 30.01 1016 10 16 0.00 0.00
1:52 pm 13:52 Mostly Sunny 87 30.6 64 17.8 46 46 NNW 8 13 30.01 1016 10 16 0.00 0.00
2:52 pm 14:52 Mostly Sunny 88 31.1 63 17.2 43 43 N 7 11 29.99 1016 10 16 0.00 0.00
3:52 pm 15:52 Mostly Sunny 90 32.2 63 17.2 41 41 VRB 7 11 29.98 1015 10 16 0.00 0.00
4:52 pm 16:52 Mostly Sunny 89 31.7 63 17.2 42 42 ENE 10 17 29.97 1015 10 16 0.00 0.00
5:52 pm 17:52 Mostly Sunny 88 31.1 63 17.2 43 43 E 10 17 29.96 1015 10 16 0.00 0.00
6:52 pm 18:52 Mostly Sunny 87 30.6 63 17.2 45 45 E 7 11 29.96 1014 10 16 0.00 0.00
7:52 pm 19:52 Mostly Sunny 84 28.9 65 18.3 53 53 E 6 9 29.96 1014 10 16 0.00 0.00
8:52 pm 20:52 Mostly Clear 80 26.7 66 18.9 62 62 E 5 7 29.96 1015 10 16 0.00 0.00
9:52 pm 21:52 Partly Cloudy 78 25.6 65 18.3 64 64 E 5 7 29.98 1015 10 16 0.00 0.00
10:52 pm 22:52 Mostly Cloudy 76 24.4 63 17.2 64 64 SE 5 7 29.99 1016 10 16 0.00 0.00
11:52 pm 23:52 Mostly Cloudy 75 23.9 62 16.7 64 64 SE 8 13 30.00 1016 10 16 0.00 0.00

Powered by AerisWeather